Terminal Aerodrome Forecast
Issued by NWS

Home | Current Version | Previous Version | Text Only | Print | Product List | Glossary On
Versions: 1 2 3 4 5 6 7 8 9 10 11 12 13 14
000
FTUS43 KDLH 151400 AAA
TAFHYR
TAF AMD
KHYR 151403Z 1514/1612 16010G16KT P6SM SKC
     FM160100 16008KT P6SM SCT140=

USA.gov is the U.S. government's official web portal to all federal, state and local government web resources and services.